Location: ?????
(55.6500°N, 37.2500°E)
Time: 06:40:49
(UTC+00:00)

ALOS - Pass Details

Date: 19 May 2025
Orbit: 663 x 666 km, 98.1° (Epoch: 23 June)

Event Time Altitude Azimuth Distance (km) Brightness Sun altitude
Rises 23:43:47 0° 20° (NNE) 3,020 7.5 -9.0°
Reaches altitude 10° 23:46:11 10° 29° (NNE) 2,101 6.5 -8.9°
Maximum altitude 23:50:24 36° 96° (E) 1,065 3.6 -8.5°
Drops below altitude 10° 23:54:36 10° 163° (SSE) 2,084 4.4 -8.2°
Enters shadow 23:56:43 - 171° (S) 2,891 5.1 -8.0°
